Location: Musselshell
(46.5176°N, 108.0911°W)
Time: 22:08:27
(UTC+00:00)

AO-91 - Pass Details

Date: 01 July 2022
Orbit: 450 x 797 km, 97.7° (Epoch: 13 August)

Event Time Altitude Azimuth Distance (km) Brightness Sun altitude
Rises 05:44:26 0° 18° (NNE) 2,534 ? -17.3°
Reaches altitude 10° 05:46:36 10° 25° (NNE) 1,624 ? -17.5°
Maximum altitude 05:49:55 46° 99° (E) 622 ? -17.7°
Enters shadow 05:50:16 44° 120° (ESE) 641 ? -17.7°
